Location: Krakow
(50.0830°N, 19.9170°E)
Time: 01:07:13
(UTC+01:00)

Tiros 1 despin weight - Visible Passes

Search period start: 04 December 2023 00:00
Search period end: 14 December 2023 00:00
Orbit: 583 x 628 km, 48.2° (Epoch: 28 November)

Date Brightness Start Highest point End Pass type
(mag) Time Alt. Az. Time Alt. Az. Time Alt. Az.
04 Dec ? 18:14:49 10° SW 18:17:41 28° S 18:17:41 28° S visible
05 Dec ? 16:47:54 10° S 16:50:17 15° SE 16:52:40 10° ESE visible
05 Dec ? 18:26:38 10° SW 18:29:34 34° SSW 18:29:34 34° SSW visible
06 Dec ? 16:58:49 10° SSW 17:02:13 22° SSE 17:04:37 15° ESE visible
06 Dec ? 18:38:40 10° WSW 18:41:24 35° SW 18:41:24 35° SW visible
07 Dec ? 17:10:20 10° SW 17:14:14 32° SSE 17:16:24 20° ESE visible
07 Dec ? 18:50:48 10° WSW 18:53:11 31° WSW 18:53:11 31° WSW visible
08 Dec ? 17:22:09 10° SW 17:26:19 44° SSE 17:28:09 28° ESE visible
08 Dec ? 19:02:59 10° W 19:04:56 26° WSW 19:04:56 26° WSW visible
09 Dec ? 17:34:10 10° WSW 17:38:27 57° SSE 17:39:53 37° ESE visible
09 Dec ? 19:15:12 10° W 19:16:40 20° W 19:16:40 20° W visible
10 Dec ? 17:46:17 10° WSW 17:50:37 66° S 17:51:35 49° ESE visible
10 Dec ? 19:27:25 10° W 19:28:22 16° W 19:28:22 16° W visible
11 Dec ? 16:17:34 10° SW 16:21:46 46° SSE 16:25:57 10° E visible
11 Dec ? 17:58:27 10° W 18:02:48 70° S 18:03:17 62° SE visible
11 Dec ? 19:39:38 10° W 19:40:04 12° W 19:40:04 12° W visible
12 Dec ? 16:29:34 10° WSW 16:33:53 58° SSE 16:38:09 10° E visible
12 Dec ? 18:10:38 10° W 18:14:57 67° S 18:15:00 67° S visible
13 Dec ? 16:41:39 10° WSW 16:46:01 67° S 16:49:57 12° E visible
13 Dec ? 18:22:48 10° W 18:26:44 55° SW 18:26:44 55° SW visible
